Hourly Data Report for October 17, 2005

TORONTO CITY
ONTARIO

43°40'00.000" N
79°24'00.000" W
112.50 m
6158355
71508
XTO

Download Data

Hourly Data (October 2005)
Hourly Data Report for October 17, 2005
TIME
LST
Temp Definition
°C
Dew Point Definition
°C
Rel Hum Definition
%
Precip. Amount Definition
mm

Wind Dir Definition
10's deg

Wind Spd Definition
km/h
Visibility Definition
km
Stn Press Definition
kPa
Hmdx Definition


Wind Chill Definition


Weather Definition


00:00 10.5 6.5 76   LegendMM LegendMM   99.84     LegendNANA
01:00 10.1 6.6 79   LegendMM LegendMM   99.84     LegendNANA
02:00 10.1 6.0 76   LegendMM LegendMM   99.81     LegendNANA
03:00 10.0 6.2 77   LegendMM LegendMM   99.78     LegendNANA
04:00 10.1 6.1 76   LegendMM LegendMM   99.76     LegendNANA
05:00 10.0 6.0 76   LegendMM LegendMM   99.77     LegendNANA
06:00 9.9 6.0 77   LegendMM LegendMM   99.78     LegendNANA
07:00 9.6 5.9 78   LegendMM LegendMM   99.80     LegendNANA
08:00 9.9 5.9 76   LegendMM LegendMM   99.79     LegendNANA
09:00 10.0 5.7 75   LegendMM LegendMM   99.79     LegendNANA
10:00 11.3 6.1 70   LegendMM LegendMM   99.76     LegendNANA
11:00 12.9 5.6 61   LegendMM LegendMM   99.74     LegendNANA
12:00 14.4 7.0 61   LegendMM LegendMM   99.68     LegendNANA
13:00 14.9 6.5 57   LegendMM LegendMM   99.58     LegendNANA
14:00 14.9 6.7 58   LegendMM LegendMM   99.47     LegendNANA
15:00 15.4 7.2 58   LegendMM LegendMM   99.41     LegendNANA
16:00 14.8 8.8 67   LegendMM LegendMM   99.34     LegendNANA
17:00 15.1 7.0 58   LegendMM LegendMM   99.29     LegendNANA
18:00 14.5 6.4 58   LegendMM LegendMM   99.26     LegendNANA
19:00 13.8 6.1 60   LegendMM LegendMM   99.17     LegendNANA
20:00 12.1 8.6 79   LegendMM LegendMM   99.26     LegendNANA
21:00 10.9 9.9 94   LegendMM LegendMM   99.20     LegendNANA
22:00 10.9 9.8 93   LegendMM LegendMM   99.07     LegendNANA
23:00 10.8 9.5 92   LegendMM LegendMM   98.93     LegendNANA

Notes on Data Quality.

Legend

  • E = Estimated
  • M = Missing
  • NA = Not Available*
  • [empty] = Indicates an unobserved value
Date modified: